www.pogodaiklimat.ru

Погода и климат >> Архив погоды >> Парагвай >> Quyquyhat


ПОГОДА в Quyquyhat

  • Прогноз погоды в Quyquyhat
  • Монитор погоды в Quyquyhat
  • Климат города

АРХИВ ПОГОДЫ в Quyquyhat

Время (UTC), дата Ветер
(напр.,м/с)
 
Видим.   Явления Облачность Т
(С)
Тd
(С)
f
(%)
Тe
(С)
Тes
(С)
Комфортность P
(гПа)
Po
(гПа)
Тmin
(С)
Tmax
(С)
R
(мм)
R24
(мм)
S
(см)
12 12.12 Ю 2 20 км 6/6 800 м
[Sc]
+26.0 +21.8 78 +33 +37 очень
душно
1011.9 995.2 +23.4
18 12.12 Ю 10 20 км гроза без осадков 10/10 600 м
[Cb cap]
+25.6 +21.7 79 +33 +33 очень
душно
1014.1 997.4
00 13.12 штиль 0 20 км 9/9 600 м
[Sc]
+22.2 +18.8 81 +28 +28 душно 1009.6 992.8 +32.2 66
09 13.12 штиль 0 20 км 6/6 800 м
[Sc]
+20.6 +18.5 88 +24 +24 комфорт 1010.4 993.5
12 13.12 штиль 0 20 км 6/6 800 м
[Sc]
+24.0 +20.9 83 +30 +35 очень
душно
1011.6 994.9 +17.0 66
18 13.12 СВ 2 20 км 8/3 900 м
[Cu med, cong Cs]
+35.0 +23.6 52 +46 +56 опасность
перегрева
1006.9 990.8
00 14.12 штиль 0 20 км ясно +29.0 +21.8 65 +37 +37 очень
душно
1009.3 992.9 +35.6
09 14.12 С 2 20 км 1/1 1000 м
[Sc]
+25.6 +20.2 72 +32 +32 очень
душно
1004.5 988.4
12 14.12 С 4 20 км 3/0 2000 м
[Ci]
+29.0 +21.7 65 +37 +43 очень
душно
1007.2 990.8 +24.0
18 14.12 С 4 20 км 8/3 900 м
[Cu med, cong Cs]
+34.6 +22.3 49 +44 +50 опасность
перегрева
1007.6 991.5
00 15.12 штиль 0 20 км зарница 4/4 1000 м
[Cb cap Ci ing]
+29.2 +23.1 70 +39 +39 очень
душно
1009.9 993.5 +35.0
09 15.12 штиль 0 20 км зарница 6/6 800 м
[Cb cap]
+25.4 +22.0 81 +33 +33 очень
душно
1011.7 995.0
12 15.12 Ю 4 20 км 10/6 800 м
[Sc Ac As]
+23.0 +20.2 84 +30 +31 очень
душно
1015.8 999.0 +22.2
18 15.12 Ю 4 20 км 10/6 800 м
[Sc Ac As]
+27.8 +19.0 59 +33 +34 очень
душно
1014.7 998.1
00 16.12 штиль 0 20 км 6/6 800 м
[Sc]
+25.6 +23.2 87 +34 +34 очень
душно
1014.0 997.3 +35.0
09 16.12 штиль 0 20 км 6/6 800 м
[Sc]
+23.2 +21.8 92 +31 +31 очень
душно
1014.1 997.3
12 16.12 С 2 20 км 6/6 800 м
[Sc]
+28.4 +23.6 75 +39 +42 очень
душно
1014.5 998.0 +20.0
18 16.12 С 2 20 км 10/6 800 м
[Sc Ac As]
+34.0 +24.0 56 +46 +48 опасность
перегрева
1011.5 995.3
00 17.12 штиль 0 20 км зарница 6/6 800 м
[Cb cap]
+29.8 +24.4 73 +42 +42 опасность
перегрева
1010.4 994.0 +35.0
09 17.12 штиль 0 20 км 4/4 800 м
[Sc]
+25.0 +22.0 83 +32 +32 очень
душно
1010.1 993.5
12 17.12 С 4 20 км 3/0 2000 м
[Ci]
+28.6 +22.2 68 +37 +43 очень
душно
1011.7 995.2 +24.4
18 17.12 С 4 20 км 4/4 1000 м
[Cu hum]
+35.0 +21.9 47 +44 +50 опасность
перегрева
1009.5 993.4
00 18.12 штиль 0 20 км 1/1 1000 м
[Sc]
+30.0 +22.9 66 +40 +40 очень
душно
1009.1 992.7 +35.6
09 18.12 ЮЗ 6 20 км 10/10 600 м
[Sc]
+23.8 +21.1 85 +30 +30 очень
душно
1011.5 994.8
12 18.12 Ю 4 20 км гроза без осадков 10/10 600 м
[Cb cap]
+23.4 +20.0 81 +30 +30 очень
душно
1013.3 996.5 +22.2
18 18.12 штиль 0 20 км 8/3 900 м
[Cu med, cong Cs]
+31.6 +22.1 57 +40 +54 опасность
солнечного
удара
1012.1 995.7
00 19.12 штиль 0 20 км 4/4 800 м
[Sc]
+26.8 +22.8 79 +36 +36 очень
душно
1012.7 996.0 +32.2
09 19.12 штиль 0 20 км 4/4 800 м
[Sc]
+22.4 +21.8 96 +30 +30 очень
душно
1010.2 993.4

 

Местоположение метеостанции Quyquyhat (Парагвай): широта -26.22 долгота -56.98 высота над уровнем моря 101 м.

В архиве по умолчанию представлена погода в Quyquyhat за последнюю неделю. Архивные данные за месяц целиком и за предыдущие месяцы, начиная с января 2011 года, Вы можете получить, выбрав интересующий диапазон дат из раскрывающегося списка и нажав кнопку "Ввод!".


*Определитесь, кто Вы:
робот инопланетянин человек

Внимание! Время в таблицах - всемирное. Для получения местного времени необходимо прибавить поправку, которая в Quyquyhat равна -4 ч.

Смотрите также архив погоды в соседних городах и на ближайших метеорологических станциях:

Погода в San Juan Bautista Misiones (Парагвай) (52 км)
Погода в Caazapa (Парагвай) (63 км)
Погода в Paraguari (Парагвай) (67 км)
Погода в Villarrica (Парагвай) (76 км)
Погода в Coronel Oviedo (Парагвай) (106 км)
Погода в Asuncion (Парагвай) (120 км)
Погода в Formosa (Аргентина) (125 км)
Погода в Pilar (Парагвай) (150 км)
Погода в Posadas (Аргентина) (162 км)
Погода в Encarnacion (Парагвай) (167 км)

Пояснения к столбцам:

Ветер - указаны скорость ветра в м/с - средняя за 10 мин, порывы в срок и между сроками (в фигурных скобках) и направление, откуда дует ветер: С - северный, СВ - северо-восточный, В - восточный, ЮВ - юго-восточный, Ю - южный, ЮЗ - юго-западный, З - западный, СЗ - северо-западный.
Видимость - горизонтальная дальность видимости в метрах или километрах. При видимости от 1 до 10 км при отсутствии осадков обычно наблюдается дымка, при ухудшении видимости до 1 км и менее - туман. В сухую погоду видимость может ухудшаться дымом, пылью или мглою.
Явления - указаны атмосферные явления, наблюдавшиеся в срок или в последний час перед сроком; фигурными скобками обозначены явления, наблюдавшиеся между сроками (за 1-3 часа до срока); квадратными скобками обозначены град или гололедные отложения с указанием их диаметра в мм.
Облачность - указаны через наклонную черту общая и нижняя облачность в баллах и высота нижней границы облаков в метрах; квадратными скобками обозначены формы облаков: Ci - перистые, Cs - перисто-слоистые, Cc - перисто-кучевые, Ac - высококучевые, As - высокослоистые, Sc - слоисто-кучевые, Ns - слоисто-дождевые, Cu - кучевые, Cb - кучево-дождевые. Подробнее классификацию облаков см. в Атласе облаков (PDF).
T - Температура воздуха - температура, измеренная на высоте 2 м над землей.
Td - Температура точки росы - температура, при понижении до которой содержащийся в воздухе водяной пар достигнет насыщения.
f - Относительная влажность воздуха - влажноcть воздуха, измеренная на высоте 2 м над землей.
Te - Эффективная температура - температура, которую ощущает одетый по сезону человек в тени. Характеристика душности погоды. При расчете учитывается влияние влажности воздуха и скорости ветра на теплоощущения человека.
Tes - Эффективная температура на солнце - температура, которую ощущает человек, с поправкой на солнечный нагрев. Характеристика знойности погоды. Зависит от высоты солнца над горизонтом, облачности и скорости ветра. Ночью, в пасмурную погоду, а также при ветре 12 м/с и более поправка равна нулю.
P - Атмосферное давление - приведенное к уровню моря атмосферное давление.
Po - Атмосферное давление - измеренное на уровне метеостанции атмосферное давление.
Tmin - Минимальная температура - минимум температуры воздуха на высоте 2 м над землей.
Tmax - Максимальная температура - максимум температуры воздуха на высоте 2 м над землей.
R - Количество осадков - Количество выпавших осадков за период времени, мм. При наведении курсора мыши на число - период времени, за который выпало указанное количество осадков.
R24 - Количество осадков - Количество выпавших осадков за 24 часа, мм.
S - Снежный покров - Высота снежного покрова, см. При наведении курсора мыши на число - состояние снежного покрова и степень покрытия местности в баллах.